DLH2PV EDDH-EDDF

Flight info

Callsign DLH2PV
Flight time N/A
Altitude 30000
Route AMLUH2G/33 AMLUH M852 DENIX DCT RIMET/N0451F310 T157 KOKEB/N0408F230 T157 KERAX KERAX5D
Aircraft A320/M-SDE3FGHIRWY/LB1

Departure

Time 2026-05-07 22:37
Airport Hamburg Helmut Schmidt Airport (EDDH)

Arrival

Time N/A
Airport Frankfurt Main Airport (EDDF)
Time Latitude Longitude Altitude Speed Heading
2026-05-07 22:16 53.63294 10.00358 51 ft 0 kts 87°
2026-05-07 22:29 53.63293 10.00328 51 ft 4 kts 87°
2026-05-07 22:30 53.63292 10.00284 51 ft 2 kts 87°
2026-05-07 22:30 53.63293 10.00251 51 ft 4 kts 129°
2026-05-07 22:30 53.63312 10.00236 46 ft 4 kts 176°
2026-05-07 22:30 53.63317 10.00235 49 ft 0 kts 176°
2026-05-07 22:33 53.63305 10.00236 46 ft 4 kts 176°
2026-05-07 22:33 53.63277 10.00239 47 ft 4 kts 176°
2026-05-07 22:33 53.63252 10.00242 51 ft 3 kts 176°
2026-05-07 22:33 53.63233 10.00244 51 ft 3 kts 175°
2026-05-07 22:34 53.63218 10.00247 51 ft 2 kts 174°
2026-05-07 22:34 53.63197 10.00250 51 ft 9 kts 174°
2026-05-07 22:34 53.63115 10.00263 51 ft 12 kts 176°
2026-05-07 22:34 53.63044 10.00234 49 ft 10 kts 210°
2026-05-07 22:35 53.62989 10.00176 49 ft 9 kts 212°
2026-05-07 22:35 53.62936 10.00119 51 ft 9 kts 212°
2026-05-07 22:35 53.62887 10.00066 50 ft 8 kts 215°
2026-05-07 22:35 53.62856 9.99996 50 ft 9 kts 239°
2026-05-07 22:36 53.62817 9.99867 48 ft 13 kts 247°
2026-05-07 22:36 53.62849 9.99760 49 ft 11 kts 330°
2026-05-07 22:36 53.62912 9.99704 50 ft 15 kts 333°
2026-05-07 22:36 53.63192 9.99464 50 ft 82 kts 333°
2026-05-07 22:37 53.63899 9.98854 49 ft 143 kts 333°
2026-05-07 22:37 53.64897 9.97984 332 ft 166 kts 335°
2026-05-07 22:37 53.65937 9.97119 1036 ft 167 kts 335°
2026-05-07 22:37 53.66999 9.96207 1569 ft 182 kts 336°
2026-05-07 22:38 53.68188 9.95206 1918 ft 205 kts 338°
2026-05-07 22:38 53.69620 9.94682 2355 ft 217 kts
2026-05-07 22:38 53.71144 9.94705 3116 ft 220 kts
2026-05-07 22:38 53.72624 9.95243 3779 ft 220 kts 33°
2026-05-07 22:39 53.73603 9.97107 3960 ft 212 kts 71°
2026-05-07 22:39 53.73930 9.99522 4004 ft 212 kts 81°
2026-05-07 22:39 53.74131 10.01982 4080 ft 214 kts 92°
2026-05-07 22:39 53.73861 10.04464 4827 ft 221 kts 109°
2026-05-07 22:40 53.73123 10.06908 5272 ft 246 kts 118°
2026-05-07 22:40 53.72253 10.09497 5969 ft 258 kts 118°
2026-05-07 22:40 53.71357 10.12152 6863 ft 263 kts 118°
2026-05-07 22:40 53.70753 10.13943 7434 ft 266 kts 118°
2026-05-07 22:41 53.69480 10.17553 8555 ft 274 kts 126°
2026-05-07 22:41 53.68132 10.19851 9422 ft 279 kts 143°
2026-05-07 22:41 53.67029 10.20994 9997 ft 283 kts 154°
2026-05-07 22:41 53.65115 10.22094 10639 ft 295 kts 165°
2026-05-07 22:42 53.62350 10.23360 10990 ft 327 kts 165°
2026-05-07 22:42 53.60857 10.24043 11171 ft 341 kts 165°
2026-05-07 22:42 53.58525 10.25111 11721 ft 351 kts 165°
2026-05-07 22:42 53.56151 10.26200 12437 ft 356 kts 165°
2026-05-07 22:43 53.53739 10.27306 13166 ft 361 kts 165°
2026-05-07 22:43 53.51301 10.28424 13902 ft 365 kts 165°
2026-05-07 22:43 53.48865 10.29538 14538 ft 369 kts 165°
2026-05-07 22:43 53.46372 10.30673 15194 ft 372 kts 165°
2026-05-07 22:44 53.43860 10.31816 15840 ft 376 kts 165°
2026-05-07 22:44 53.41318 10.32966 16497 ft 379 kts 165°
2026-05-07 22:44 53.38759 10.34118 17127 ft 383 kts 165°
2026-05-07 22:44 53.36171 10.35280 17767 ft 386 kts 166°
2026-05-07 22:45 53.33556 10.36453 18406 ft 390 kts 166°
2026-05-07 22:45 53.30927 10.37632 18970 ft 393 kts 166°
2026-05-07 22:45 53.28267 10.38823 19527 ft 397 kts 166°
2026-05-07 22:45 53.25629 10.40006 20088 ft 399 kts 166°
2026-05-07 22:46 53.22932 10.41214 20651 ft 402 kts 166°
2026-05-07 22:46 53.20214 10.42430 21193 ft 405 kts 166°
2026-05-07 22:46 53.17476 10.43655 21724 ft 408 kts 166°
2026-05-07 22:46 53.14711 10.44831 22233 ft 411 kts 170°
2026-05-07 22:47 53.11865 10.45387 22733 ft 413 kts 179°
2026-05-07 22:47 53.08989 10.45175 23222 ft 415 kts 186°
2026-05-07 22:47 53.06099 10.44755 23697 ft 417 kts 186°
2026-05-07 22:47 53.03193 10.44345 24088 ft 420 kts 186°
2026-05-07 22:48 53.00271 10.43943 24477 ft 422 kts 185°
2026-05-07 22:48 52.97369 10.43547 24846 ft 425 kts 185°
2026-05-07 22:48 52.94408 10.43150 25218 ft 427 kts 185°
2026-05-07 22:48 52.91438 10.42753 25578 ft 429 kts 185°
2026-05-07 22:49 52.88449 10.42351 25941 ft 432 kts 185°
2026-05-07 22:49 52.85445 10.41944 26294 ft 434 kts 185°
2026-05-07 22:49 52.82424 10.41531 26640 ft 436 kts 186°
2026-05-07 22:49 52.79392 10.41115 26968 ft 438 kts 186°
2026-05-07 22:50 52.76345 10.40700 27300 ft 440 kts 186°
2026-05-07 22:50 52.73281 10.40286 27629 ft 442 kts 186°
2026-05-07 22:50 52.70203 10.39870 27940 ft 444 kts 186°
2026-05-07 22:50 52.67117 10.39452 28240 ft 446 kts 186°
2026-05-07 22:51 52.64047 10.39035 28532 ft 448 kts 186°
2026-05-07 22:51 52.60932 10.38614 28811 ft 450 kts 185°
2026-05-07 22:51 52.57801 10.38195 29081 ft 452 kts 185°
2026-05-07 22:51 52.54652 10.37776 29338 ft 454 kts 186°
2026-05-07 22:52 52.51504 10.37354 29588 ft 455 kts 186°
2026-05-07 22:52 52.48342 10.36927 29874 ft 455 kts 186°
2026-05-07 22:52 52.45178 10.36501 30112 ft 455 kts 186°
2026-05-07 22:53 52.38937 10.35672 30139 ft 448 kts 186°
2026-05-07 22:53 52.32720 10.34845 30139 ft 447 kts 186°
2026-05-07 22:54 52.26551 10.34032 30143 ft 447 kts 186°
2026-05-07 22:54 52.20337 10.33209 30140 ft 447 kts 186°
2026-05-07 22:55 52.14124 10.32391 30137 ft 447 kts 186°
2026-05-07 22:55 52.07917 10.31575 30141 ft 447 kts 186°
2026-05-07 22:56 52.01749 10.30770 30141 ft 447 kts 186°
2026-05-07 22:56 51.95538 10.29959 30141 ft 447 kts 186°
2026-05-07 22:57 51.89335 10.29133 30140 ft 447 kts 186°
2026-05-07 22:57 51.83122 10.28318 30131 ft 448 kts 186°
2026-05-07 22:58 51.76894 10.27518 30134 ft 448 kts 186°
2026-05-07 22:58 51.70666 10.26720 30135 ft 449 kts 186°
2026-05-07 22:59 51.64439 10.25915 30139 ft 449 kts 186°
2026-05-07 22:59 51.58241 10.25120 30136 ft 449 kts 186°
2026-05-07 23:00 51.51969 10.24315 30232 ft 456 kts 186°
2026-05-07 23:00 51.48773 10.23904 30119 ft 465 kts 186°
2026-05-07 23:00 51.45537 10.23493 30153 ft 468 kts 186°
2026-05-07 23:01 51.38992 10.22661 30150 ft 474 kts 186°
2026-05-07 23:01 51.32396 10.21852 30144 ft 469 kts 185°
2026-05-07 23:01 51.29183 10.21633 30144 ft 457 kts 183°
2026-05-07 23:02 51.26026 10.21557 30145 ft 453 kts 182°
2026-05-07 23:02 51.19736 10.21591 30147 ft 451 kts 181°
2026-05-07 23:03 51.13460 10.21577 30143 ft 451 kts 182°
2026-05-07 23:03 51.07181 10.21461 30144 ft 451 kts 182°
2026-05-07 23:04 51.00944 10.21320 30142 ft 451 kts 182°
2026-05-07 23:04 50.94672 10.21202 30134 ft 451 kts 182°
2026-05-07 23:05 50.88399 10.21086 30004 ft 452 kts 182°
2026-05-07 23:05 50.85290 10.20572 29713 ft 447 kts 197°
2026-05-07 23:05 50.82436 10.18695 29428 ft 444 kts 212°
2026-05-07 23:05 50.79922 10.15871 29142 ft 442 kts 222°
2026-05-07 23:06 50.77738 10.12464 28870 ft 441 kts 231°
2026-05-07 23:06 50.75910 10.08571 28596 ft 440 kts 240°
2026-05-07 23:06 50.74453 10.04329 28316 ft 440 kts 244°
2026-05-07 23:06 50.73051 10.00038 28041 ft 441 kts 244°
2026-05-07 23:07 50.71660 9.95720 27770 ft 441 kts 244°
2026-05-07 23:07 50.70275 9.91391 27500 ft 442 kts 244°
2026-05-07 23:07 50.68893 9.87060 27229 ft 443 kts 244°
2026-05-07 23:07 50.67504 9.82721 26958 ft 443 kts 244°
2026-05-07 23:08 50.66114 9.78401 26717 ft 441 kts 244°
2026-05-07 23:08 50.64616 9.74194 26457 ft 440 kts 237°